SATCOM 3 DEB, 32985

Orbit data source: Space-Track

SATCOM 3 DEB, 32985 is space debris in HEO originally from a launch on Fri, 07 Dec 1979 UTC launched from the Air Force Eastern Test Range (AFETR). Debris objects in space refer to the collection of defunct objects orbiting the Earth. Examples of debris include non-operational satellites, rocket bodies, and fragments generated from explosions, collisions, or faulty payload assembly.

Loading next visibility...
Identifier
32985, 1979-101L
Orbit
HEO
Country
Flag of USUS
Related business
Manufacturer
Unknown
Mission
Spacecraft
Bus & Motor
Unknown
Mass
Unknown
Launch date (UTC)
1979-12-07 (47 years ago)
Launch vehicle
Unknown
Launch site
Air Force Eastern Test Range (AFETR)
Object type
Payload
Rocket body
Debris
Shape & HBR
Unknown shape, 1.1 m
Radar Cross Section
Medium (>0.1 m² and <1 m²)

Expand to show TLE details & history
Last TLE update: 7 hours ago

TLE from 7 hours ago
0 SATCOM 3 DEB
1 32985U 79101L   26168.78782086 -.00000091  00000-0  00000+0 0  9994
2 32985   7.8136 163.3232 4764084 308.1004 299.3534  1.80671105120651
Epoch: 2026-06-17T18:54Z
TLE epoch observation values (Epoch: 2026-06-17T18:54:27.722Z)
Latitude
-1.54361°
Longitude
165.01128°
Altitude
21,580.66 km
Speed
3.81 km/s
True Right ascension
23h 38m 40s
True Declination
-1° 32' 28"
Sunlit
Object was in daylight at epoch
Visualization orbit readout
Latitude
Unknown
Longitude
Unknown
Altitude
Unknown
Speed
Unknown
Apparent Right ascension
Unknown
Apparent Declination
Unknown
Sunlit
N/A
Visualization observer readout
Local Sidereal Time
12:58:25
Azimuth
Unknown
Elevation
Unknown
Doppler factor
Unknown
Orbital elements
Apogee altitude
35,667.076 km
Perigee altitude
8,532.724 km
Semi-major axis
28,478.037 km
Eccentricity
0.47641
Inclination
7.8136°
RAAN
163.3232°
Arg. of periapsis
308.1004°
True anomaly
243.38932°
Mean anomaly
299.3534°
Eccentric anomaly
272.07511°
Mean motion
0.45163 °/min
Orbital period
797.12 mins
BSTAR
0
Loading maneuver chart data...
Computing Atmospheric mass density...
Loading historical data...
Loading historical data...
Loading historical data...
Loading historical data...
Loading historical data...
Loading historical data...
Loading historical data...

Documentation

Showing up to 5 results
|